Regional Weather Roundup
Issued by NWS Glasgow, MT

Home | Current Version | Previous Version | Text Only | Print | Product List | Glossary On
Versions: 1 2 3 4 5 6 7 8 9 10 11 12 13 14 15 16 17 18 19 20 21 22 23 24 25 26 27 28
000
ASUS45 KGGW 250715
RWRGGW
HOURLY REGIONAL WEATHER ROUNDUP FOR NORTHEAST MONTANA
NATIONAL WEATHER SERVICE GLASGOW MONTANA
100 AM MDT WED MAY 25 2016

NOTE: "FAIR" INDICATES FEW OR NO CLOUDS BELOW 12,000 FEET WITH NO
SIGNIFICANT WEATHER AND/OR OBSTRUCTIONS TO VISISBILITY.

NORTHEAST MONTANA


CITY           SKY/WX    TMP DP  RH WIND       PRES   REMARKS
GLASGOW        PTCLDY    49  43  80 NE9       29.88F
PLENTYWOOD       N/A     49  41  74 NE6         N/A
WOLF POINT     MOCLDY    51  43  74 CALM      29.89F
JORDAN           N/A     43  40  89 W3        29.88F
WINNETT          N/A     40  39  97 SW1         N/A
SIDNEY         CLOUDY    57  41  55 N13       29.88S
GLENDIVE       CLOUDY    55  41  58 N18       29.90F
MALTA            N/A     47  43  86 SE2         N/A
SCOBEY           N/A     40  28  63 CALM      29.89S
OPHEIM           N/A     46  41  81 S1        29.77S

FORT PECK REPORTS


CITY           SKY/WX    TMP DP  RH WIND       PRES   REMARKS
FORT PECK        N/A     52  42  69 NE9         N/A
THE PINES        N/A     52  42  69 NE5         N/A

SOUTHEAST MONTANA


CITY           SKY/WX    TMP DP  RH WIND       PRES   REMARKS
BILLINGS       CLOUDY    49  43  80 NE5       29.91S
MILES CITY     LGT RAIN  53  47  79 NE16      29.86F
BAKER          CLOUDY    54  47  77 S3        29.85F
LIVINGSTON     CLOUDY    45  40  82 SE7       29.93S

CENTRAL MONTANA


CITY           SKY/WX    TMP DP  RH WIND       PRES   REMARKS
HAVRE            N/A    N/A N/A N/A MISG      29.88S
LEWISTOWN      CLEAR     39  35  86 SE5       29.91F
GREAT FALLS    CLEAR     43  39  86 S10       29.90S
CUT BANK       PTCLDY    43  38  82 W6        29.88F
HELENA         PTCLDY    47  41  80 SW8       29.92F
BUTTE          PTCLDY    36  34  92 S5        29.98S
BOZEMAN        CLOUDY    45  40  82 SE5       29.94S

WESTERN MONTANA


CITY           SKY/WX    TMP DP  RH WIND       PRES   REMARKS
MISSOULA       CLEAR     42  38  85 CALM      29.96S
KALISPELL      NOT AVBL

NORTH DAKOTA


CITY           SKY/WX    TMP DP  RH WIND       PRES   REMARKS
WILLISTON      CLOUDY    54  38  54 N8        29.87F
DICKINSON      CLOUDY    55  49  80 CALM      29.83F
MINOT          CLOUDY    62  44  51 NE5       29.87S
BISMARCK       CLOUDY    63  52  67 SE8       29.87R

SOUTHERN SASKATCHEWAN


CITY           SKY/WX    TMP DP  RH WIND       PRES   REMARKS
REGINA         CLEAR     43  39  87 SE7       29.89R
MOOSE JAW      CLEAR     45  43  93 S7        29.89R
ESTEVAN        PTCLDY    43  36  75 NE6       29.88F
SWIFT CURRENT  MOCLDY    45  45 100 SW6       29.87R FOG





USA.gov is the U.S. government's official web portal to all federal, state and local government web resources and services.